Cloud_Cover
55 50 62 100 100 100 100 100 100 100 100 100 100 100 100 100 100 100 100 100 100 94 62 13 5 25 40 3 5 5 5 5 5 5 5 5 5 5 5 4 5 5 100 76 100 48 70
80 96 71 97 100 100 100 100 100 100 100 100 100 100 100 100 100 100 100 100 100 100 100 100 100 66 84 74 40 4 5 5 5 22 6 13 5 25 21 5 5 5 82 49 90 88 69
100 100 64 98 92 100 100 100 100 100 100 100 100 100 100 100 100 100 100 100 100 100 100 100 6 5 5 5 1 2 0 6 97 99 100 100 100 100 41 10 7 5 5 72 5 22 100
100 92 94 100 100 73 100 100 100 100 100 100 100 100 100 100 100 100 100 100 100 100 100 100 100 100 89 21 4 5 5 1 4 73 100 100 100 100 100 100 89 4 5 57 20 44 100
100 100 75 89 91 97 86 91 100 90 42 100 100 100 100 100 100 100 100 100 100 100 100 100 100 100 100 8 5 3 2 5 2 3 32 100 100 100 100 100 33 9 53 34 72 100 100
100 82 99 100 100 100 100 95 100 100 97 20 95 100 100 100 100 100 100 100 100 100 100 100 82 100 95 25 5 5 2 4 5 5 5 6 100 100 100 100 82 63 100 84 100 100 100
100 93 33 7 31 97 85 94 100 100 89 62 76 48 30 98 100 100 100 100 100 100 100 98 32 94 100 98 6 100 45 5 4 13 3 4 5 66 100 100 100 51 91 100 100 100 100
100 98 76 14 48 75 28 14 53 100 99 100 99 100 61 6 94 100 100 100 100 86 100 69 60 100 100 100 9 11 16 46 11 80 27 5 7 4 21 86 100 100 52 100 100 97 96
100 100 96 100 89 100 100 100 83 76 75 39 100 100 99 87 100 100 100 100 100 100 99 38 36 5 43 38 26 9 5 100 8 30 100 91 23 50 61 92 100 100 100 92 100 100 45
100 100 100 96 100 100 95 100 100 97 100 90 47 100 100 100 100 100 100 100 100 97 100 6 18 5 14 5 3 5 22 5 13 5 91 8 99 11 89 22 8 100 100 100 18 26 52
100 100 100 100 100 100 94 100 100 100 100 100 95 100 100 100 100 100 81 100 100 91 100 0 5 93 100 54 10 5 5 5 72 91 5 59 99 70 4 5 5 24 97 8 2 5 2
100 100 100 100 100 100 100 100 100 100 100 100 100 100 100 100 100 100 100 100 100 100 63 0 5 100 100 100 100 100 100 98 56 99 94 19 96 100 24 20 5 43 67 29 32 3 4
100 100 100 100 100 100 100 100 100 100 100 100 100 74 100 100 100 100 100 100 100 94 13 2 10 92 100 100 100 100 100 99 100 26 58 100 100 28 23 9 72 100 18 61 57 8 100
100 100 100 100 100 100 100 100 100 100 99 100 100 100 100 100 100 100 100 100 100 100 100 33 100 91 28 100 100 100 100 100 95 100 100 100 100 100 100 20 7 69 1 3 88 100 99
100 100 100 100 100 100 100 100 100 98 100 100 100 100 100 100 100 100 100 100 100 83 100 100 100 100 100 100 100 100 100 100 100 100 100 100 100 100 100 100 100 100 6 43 27 3 5
100 100 100 100 100 100 100 100 100 100 100 100 95 93 80 100 100 100 100 100 99 100 100 100 100 100 100 100 100 100 100 100 100 100 100 100 100 100 100 100 100 100 100 100 37 58 19
98 80 6 86 82 13 2 5 16 97 100 58 95 100 3 13 89 100 100 88 5 92 100 100 100 100 100 100 100 100 100 100 100 97 100 100 73 100 100 100 100 100 100 95 100 100 100
93 6 5 5 1 2 0 2 5 6 99 100 100 100 50 99 100 100 100 4 64 76 100 100 94 34 100 100 100 100 100 100 100 100 100 100 100 100 100 100 100 100 100 100 100 100 72
5 5 4 5 5 0 0 0 2 5 89 75 98 100 43 100 100 100 69 5 2 0 0 3 37 5 32 100 100 100 98 100 100 100 100 100 100 100 100 100 100 100 100 100 100 100 100
5 5 5 5 5 5 4 1 2 5 98 100 100 100 100 100 93 58 5 5 5 1 0 5 5 5 5 94 100 100 85 100 100 100 100 100 100 100 100 100 100 100 100 100 100 100 100
5 5 5 5 5 5 5 5 0 5 5 100 100 63 100 90 100 100 14 5 5 5 4 4 83 9 6 63 16 60 48 100 100 98 100 100 100 100 100 100 100 100 100 100 100 100 100
5 5 5 5 4 5 5 8 4 5 10 100 100 91 37 100 76 99 6 76 46 3 5 5 1 0 5 84 8 13 2 52 98 100 100 100 100 100 100 100 100 100 100 100 100 100 100
5 5 16 5 5 5 5 15 52 5 99 100 100 7 69 12 96 92 77 4 0 0 1 0 1 0 4 0 4 5 5 13 48 25 100 100 100 100 100 100 100 100 100 100 100 100 100
78 74 20 22 56 100 97 58 92 100 100 100 86 23 93 51 31 99 50 5 0 0 0 2 3 2 0 0 60 100 16 100 82 70 46 100 100 100 100 100 100 100 100 100 100 100 100
100 100 100 100 100 97 69 22 9 6 51 99 90 65 99 90 5 8 96 84 59 10 5 0 37 2 4 7 100 100 100 100 100 80 68 100 100 100 100 100 100 100 100 100 100 100 100
100 100 100 100 100 100 100 100 100 100 100 100 100 48 100 65 12 1 7 91 10 3 4 5 5 83 52 100 100 98 96 72 61 93 90 100 100 100 87 100 100 100 100 100 100 100 100
100 100 100 100 100 100 100 100 100 100 100 100 100 100 100 100 3 0 31 4 8 5 0 0 4 5 80 98 88 100 99 29 8 9 80 40 93 99 100 100 100 100 100 100 100 100 100
100 100 100 100 100 100 100 100 100 100 100 100 100 100 100 100 61 0 0 2 54 36 5 1 13 61 99 100 92 99 49 5 5 24 5 54 100 85 96 100 100 100 64 97 100 100 100
100 100 100 100 100 100 100 100 100 100 100 100 100 100 100 100 97 5 0 0 1 11 19 5 6 18 49 100 100 96 11 5 5 5 37 75 99 100 100 100 100 99 100 100 100 100 100